When you browse on this site, cookies collect data to enhance your experience and personalize the content and advertising you see.
Visit our Privacy Policy to learn more. By continuing to use the site, you agree to this use of cookies and data.
  • în România
  • Lista ţărilor
  • Pe 7 zile
  • Temperatura apei
  • Hartă satelitară
  • Meteo pe hartă
  • Widget-uri
  • user-avatar
    Intrare

    Meteo pe oră la Byala

    Astăzi, 21 Aprilie, Duminică

    Timp Temperatura Precipitaţii Vânt Presiune Umiditate
    00:00 +4°C° 0 mm 3 m/s 759 mmHg 65%
    01:00 +3°C° 0 mm 3 m/s 759 mmHg 68%
    02:00 +3°C° 0 mm 3 m/s 758 mmHg 70%
    03:00 +3°C° 0 mm 3 m/s 758 mmHg 71%
    04:00 +3°C° 0 mm 3 m/s 758 mmHg 72%
    05:00 +3°C° 0 mm 3 m/s 758 mmHg 74%
    06:00 +4°C° 0 mm 3 m/s 758 mmHg 70%
    07:00 +7°C° 0 mm 3 m/s 758 mmHg 66%
    08:00 +9°C° 0 mm 3 m/s 758 mmHg 62%
    09:00 +10°C° 0 mm 3 m/s 758 mmHg 56%
    10:00 +13°C° 0 mm 2 m/s 758 mmHg 51%
    11:00 +14°C° 0 mm 2 m/s 758 mmHg 45%
    12:00 +14°C° 0 mm 2 m/s 758 mmHg 47%
    13:00 +13°C° 0 mm 3 m/s 757 mmHg 48%
    14:00 +13°C° 0 mm 3 m/s 757 mmHg 50%
    15:00 +13°C° 0 mm 3 m/s 757 mmHg 52%
    16:00 +12°C° 0 mm 3 m/s 757 mmHg 55%
    17:00 +12°C° 0 mm 4 m/s 756 mmHg 57%
    18:00 +11°C° 0 mm 3 m/s 756 mmHg 60%
    19:00 +9°C° 0 mm 3 m/s 756 mmHg 63%
    20:00 +8°C° 0 mm 2 m/s 756 mmHg 65%
    21:00 +7°C° 0 mm 2 m/s 756 mmHg 66%
    22:00 +7°C° 0 mm 2 m/s 756 mmHg 66%
    23:00 +7°C° 0 mm 2 m/s 756 mmHg 67%

    Mâine, 22 Aprilie, Luni

    Timp Temperatura Precipitaţii Vânt Presiune Umiditate
    00:00 +6°C° 0 mm 2 m/s 756 mmHg 67%
    01:00 +6°C° 0 mm 2 m/s 756 mmHg 67%
    02:00 +6°C° 0 mm 2 m/s 756 mmHg 66%
    03:00 +6°C° 0 mm 2 m/s 756 mmHg 67%
    04:00 +6°C° 0 mm 2 m/s 756 mmHg 67%
    05:00 +6°C° 0 mm 2 m/s 756 mmHg 67%
    06:00 +7°C° 0 mm 3 m/s 756 mmHg 65%
    07:00 +9°C° 0 mm 3 m/s 756 mmHg 62%
    08:00 +10°C° 0 mm 4 m/s 756 mmHg 59%
    09:00 +11°C° 0 mm 4 m/s 756 mmHg 57%
    10:00 +12°C° 0 mm 5 m/s 756 mmHg 55%
    11:00 +13°C° 0 mm 6 m/s 757 mmHg 53%
    12:00 +13°C° 0 mm 6 m/s 756 mmHg 54%
    13:00 +13°C° 0 mm 6 m/s 756 mmHg 54%
    14:00 +13°C° 0 mm 6 m/s 756 mmHg 55%
    15:00 +11°C° 0 mm 6 m/s 756 mmHg 56%
    16:00 +10°C° 0 mm 5 m/s 756 mmHg 56%
    17:00 +10°C° 0 mm 5 m/s 756 mmHg 57%
    18:00 +9°C° 0 mm 5 m/s 756 mmHg 61%
    19:00 +8°C° 0 mm 4 m/s 757 mmHg 64%
    20:00 +7°C° 0 mm 4 m/s 757 mmHg 67%
    21:00 +7°C° 0 mm 4 m/s 757 mmHg 70%
    22:00 +7°C° 0 mm 4 m/s 757 mmHg 72%
    23:00 +7°C° 0 mm 3 m/s 757 mmHg 75%

    Poimâine, 23 Aprilie, Marţi

    Timp Temperatura Precipitaţii Vânt Presiune Umiditate
    00:00 +7°C° 0 mm 3 m/s 757 mmHg 77%
    01:00 +7°C° 0 mm 3 m/s 757 mmHg 79%
    02:00 +7°C° 0 mm 3 m/s 757 mmHg 81%
    03:00 +7°C° 0 mm 3 m/s 757 mmHg 81%
    04:00 +7°C° 0 mm 3 m/s 757 mmHg 82%
    05:00 +7°C° 0 mm 3 m/s 757 mmHg 83%
    06:00 +8°C° 0 mm 3 m/s 758 mmHg 80%
    07:00 +9°C° 0 mm 3 m/s 758 mmHg 77%
    08:00 +10°C° 0 mm 3 m/s 758 mmHg 74%
    09:00 +10°C° 0 mm 4 m/s 758 mmHg 71%
    10:00 +11°C° 0 mm 4 m/s 759 mmHg 68%
    11:00 +12°C° 0 mm 5 m/s 759 mmHg 64%
    12:00 +12°C° 0 mm 5 m/s 759 mmHg 64%
    13:00 +12°C° 0 mm 5 m/s 758 mmHg 65%
    14:00 +10°C° 0 mm 5 m/s 758 mmHg 65%
    15:00 +10°C° 0 mm 5 m/s 758 mmHg 66%
    16:00 +10°C° 0 mm 5 m/s 758 mmHg 66%
    17:00 +10°C° 0 mm 5 m/s 757 mmHg 67%
    18:00 +9°C° 0 mm 5 m/s 758 mmHg 71%
    19:00 +10°C° 0 mm 4 m/s 758 mmHg 75%
    20:00 +8°C° 0 mm 4 m/s 758 mmHg 79%
    21:00 +8°C° 0 mm 4 m/s 758 mmHg 81%
    22:00 +8°C° 0 mm 4 m/s 758 mmHg 84%
    23:00 +8°C° 0 mm 4 m/s 758 mmHg 86%

    24 Aprilie, Miercuri

    Timp Temperatura Precipitaţii Vânt Presiune Umiditate
    00:00 +7°C° 0 mm 4 m/s 758 mmHg 88%
    01:00 +8°C° 0 mm 3 m/s 758 mmHg 91%
    02:00 +8°C° 0 mm 3 m/s 758 mmHg 93%
    03:00 +8°C° 0 mm 3 m/s 758 mmHg 94%
    04:00 +8°C° 0 mm 3 m/s 758 mmHg 94%
    05:00 +8°C° 0 mm 3 m/s 758 mmHg 95%
    06:00 +9°C° 0 mm 3 m/s 758 mmHg 90%
    07:00 +11°C° 0 mm 3 m/s 758 mmHg 84%
    08:00 +12°C° 0 mm 3 m/s 759 mmHg 79%
    09:00 +13°C° 0 mm 3 m/s 759 mmHg 74%
    10:00 +14°C° 0 mm 3 m/s 759 mmHg 69%
    11:00 +15°C° 0 mm 4 m/s 759 mmHg 64%
    12:00 +17°C° 0 mm 4 m/s 759 mmHg 63%
    13:00 +17°C° 0 mm 4 m/s 759 mmHg 63%
    14:00 +17°C° 0 mm 4 m/s 759 mmHg 63%
    15:00 +15°C° 0 mm 4 m/s 759 mmHg 66%
    16:00 +14°C° 0 mm 4 m/s 758 mmHg 68%
    17:00 +13°C° 0 mm 4 m/s 758 mmHg 71%
    18:00 +12°C° 0 mm 4 m/s 758 mmHg 77%
    19:00 +11°C° 0 mm 3 m/s 759 mmHg 84%
    20:00 +9°C° 0 mm 3 m/s 759 mmHg 91%
    21:00 +9°C° 0 mm 3 m/s 759 mmHg 91%
    22:00 +9°C° 0 mm 2 m/s 759 mmHg 92%
    23:00 +9°C° 0 mm 2 m/s 759 mmHg 93%

    25 Aprilie, Joi

    Timp Temperatura Precipitaţii Vânt Presiune Umiditate
    00:00 +9°C° 0 mm 2 m/s 759 mmHg 92%
    01:00 +8°C° 0 mm 2 m/s 759 mmHg 92%
    02:00 +8°C° 0 mm 2 m/s 759 mmHg 92%
    03:00 +8°C° 0 mm 2 m/s 759 mmHg 92%
    04:00 +8°C° 0 mm 2 m/s 759 mmHg 92%
    05:00 +8°C° 0 mm 2 m/s 759 mmHg 92%
    06:00 +10°C° 0 mm 3 m/s 759 mmHg 86%
    07:00 +11°C° 0 mm 3 m/s 759 mmHg 81%
    08:00 +13°C° 0 mm 3 m/s 759 mmHg 75%
    09:00 +14°C° 0 mm 3 m/s 760 mmHg 71%
    10:00 +16°C° 0 mm 3 m/s 760 mmHg 66%
    11:00 +17°C° 0 mm 3 m/s 760 mmHg 62%
    12:00 +17°C° 0 mm 4 m/s 759 mmHg 62%
    13:00 +17°C° 0 mm 4 m/s 759 mmHg 63%
    14:00 +16°C° 0 mm 5 m/s 759 mmHg 63%
    15:00 +15°C° 0 mm 5 m/s 759 mmHg 67%
    16:00 +14°C° 0 mm 4 m/s 759 mmHg 70%
    17:00 +13°C° 0 mm 4 m/s 758 mmHg 74%
    18:00 +12°C° 0 mm 4 m/s 758 mmHg 80%
    19:00 +11°C° 0 mm 3 m/s 759 mmHg 85%
    20:00 +9°C° 0 mm 2 m/s 759 mmHg 91%
    21:00 +9°C° 0 mm 2 m/s 759 mmHg 91%
    22:00 +9°C° 0 mm 2 m/s 759 mmHg 90%
    23:00 +9°C° 0 mm 2 m/s 758 mmHg 90%

    26 Aprilie, Vineri

    Timp Temperatura Precipitaţii Vânt Presiune Umiditate
    00:00 +8°C° 0 mm 2 m/s 758 mmHg 90%
    01:00 +8°C° 0 mm 2 m/s 758 mmHg 91%
    02:00 +8°C° 0 mm 2 m/s 757 mmHg 91%
    03:00 +8°C° 0 mm 2 m/s 757 mmHg 91%
    04:00 +8°C° 0 mm 2 m/s 757 mmHg 91%
    05:00 +8°C° 0 mm 2 m/s 757 mmHg 91%
    06:00 +10°C° 0 mm 2 m/s 757 mmHg 86%
    07:00 +12°C° 0 mm 2 m/s 757 mmHg 81%
    08:00 +13°C° 0 mm 3 m/s 757 mmHg 76%
    09:00 +14°C° 0 mm 3 m/s 757 mmHg 72%
    10:00 +16°C° 0 mm 3 m/s 757 mmHg 68%
    11:00 +17°C° 0 mm 4 m/s 757 mmHg 64%
    12:00 +17°C° 0 mm 4 m/s 756 mmHg 63%
    13:00 +17°C° 0 mm 4 m/s 756 mmHg 62%
    14:00 +17°C° 0 mm 4 m/s 755 mmHg 62%
    15:00 +16°C° 0 mm 3 m/s 755 mmHg 64%
    16:00 +16°C° 0 mm 3 m/s 755 mmHg 66%
    17:00 +14°C° 0 mm 3 m/s 754 mmHg 68%
    18:00 +13°C° 0 mm 3 m/s 754 mmHg 73%
    19:00 +12°C° 0 mm 2 m/s 755 mmHg 79%
    20:00 +10°C° 0 mm 2 m/s 755 mmHg 84%
    21:00 +10°C° 0 mm 2 m/s 754 mmHg 84%
    22:00 +10°C° 0 mm 2 m/s 754 mmHg 85%
    23:00 +10°C° 0 mm 1 m/s 754 mmHg 85%
    Arată mai mult